Overview Statistics Trail Chart Weather Telemetry Raw packets
 

This is the latest recevied weather packets stored in our database for station/object n3uvr. If no packets are shown the sender has not sent any weather packets the latest 10 day(s).

<< 1 2 3 4 >>
Time Temp. Humidity Pressure Rain* Wind** Luminosity Snow
1788622308 22.22° C 69% 1012.3 hPa 0 mm - 56 W/m² -
1788621091 22.22° C 71% 1012.2 hPa 0 mm - 250 W/m² -
1788618695 21.11° C 77% 1012.3 hPa 0 mm - 95 W/m² -
1788618098 20.56° C 81% 1012.2 hPa 0 mm - 578 W/m² -
1788616912 19.44° C 85% 1012.4 hPa 0 mm - 81 W/m² -
1788616318 18.89° C 87% 1012.2 hPa 0 mm - 95 W/m² -
1788615708 18.33° C 86% 1012.1 hPa 0 mm - 76 W/m² -
1788614494 17.22° C 84% 1012.3 hPa 0 mm - 83 W/m² -
1788613873 16.67° C 84% 1012.3 hPa 0 mm - 47 W/m² -
1788613294 16.67° C 85% 1012.5 hPa 0 mm - 39 W/m² -
1788612083 16.11° C 86% 1012.7 hPa 0 mm - 23 W/m² -
1788611459 16.11° C 87% 1012.5 hPa 0 mm - 19 W/m² -
1788610850 15.56° C 87% 1012.5 hPa 0 mm - 12 W/m² -
1788610257 15.56° C 88% 1012.3 hPa 0 mm - 7 W/m² -
1788609667 15.56° C 88% 1012.1 hPa 0 mm - 7 W/m² -
1788608454 16.11° C 88% 1012 hPa 0 mm - 0 W/m² -
1788607843 16.11° C 88% 1011.8 hPa 0 mm - 0 W/m² -
1788604868 16.67° C 88% 1011.1 hPa 0 mm - 0 W/m² -
1788603087 17.22° C 88% 1011 hPa 0 mm - 0 W/m² -
1788602476 17.22° C 88% 1010.9 hPa 0 mm - 0 W/m² -
1788601881 17.22° C 88% 1011 hPa 0 mm - 0 W/m² -
1788601297 17.22° C 88% 1011 hPa 0 mm - 0 W/m² -
1788600695 17.22° C 88% 1011.1 hPa 0 mm - 0 W/m² -
1788600097 17.78° C 88% 1011.1 hPa 0 mm - 0 W/m² -
1788599487 17.78° C 88% 1011.1 hPa 0 mm - 0 W/m² -

* Rain latest hour (hover to see other rain measurements)
** Current wind speed in m/s (hover to see current wind gust speed)